STARLINK-6219, 56892

Orbit data source: Space-Track

STARLINK-6219, 56892 is a payload satellite owned by SpaceX/Seattle (US) in LEO that was launched on Mon, 12 Jun 2023 UTC via an FALCON 9 launch vehicle from the Air Force Eastern Test Range (AFETR). Payload-class satellites include a variety of spacecraft equipped with specific instruments for various scientific and technological missions. These include communications satellites like Starlink; space stations such as the ISS; scientific satellites like the Hubble; Earth observation satellites from companies like Planet Labs, Umbra, and HawkEye 360; GPS; miniature CubeSats for education and research; and military/defense satellites.

Loading next visibility...
Identifier
56892, 2023-083S
Orbit
LEO
Country
Flag of USUS
Related business
Manufacturer
SpaceX/Seattle
Mission
Operational Commercial Communications
Bus & Motor
STARLINK, Unknown motor
Mass
305 kg wet, ~290 kg dry
Launch date (UTC)
2023-06-12 (3 years ago)
Launch vehicle
FALCON 9
Launch site
Air Force Eastern Test Range (AFETR)
Object type
Payload
Rocket body
Debris
Shape & HBR
Box + 1 Pan, 10.1 m
Radar Cross Section
11.087 m², Large (>1 m²)

Expand to show TLE details & history
Last TLE update: 2 days ago

TLE from 2 days ago
0 STARLINK-6219
1 56892U 23083S   26171.46422566 -.00004100  00000-0 -13944-3 0  9999
2 56892  43.0037 228.5985 0002211 292.2645  67.7972 15.27598288167304
Epoch: 2026-06-20T11:08Z
TLE epoch observation values (Epoch: 2026-06-20T11:08:29.097Z)
Latitude
-0.00001°
Longitude
152.79878°
Altitude
482.197 km
Speed
7.626 km/s
True Right ascension
15h 14m 23s
True Declination
0° 00' 00"
Sunlit
Object was in full shadow at epoch
Visualization orbit readout
Latitude
Unknown
Longitude
Unknown
Altitude
Unknown
Speed
Unknown
Apparent Right ascension
Unknown
Apparent Declination
Unknown
Sunlit
N/A
Visualization observer readout
Local Sidereal Time
00:27:32
Azimuth
Unknown
Elevation
Unknown
Doppler factor
Unknown
Orbital elements
Apogee altitude
486.456 km
Perigee altitude
483.421 km
Semi-major axis
6,863.076 km
Eccentricity
0.00022
Inclination
43.0037°
RAAN
228.5985°
Arg. of periapsis
292.2645°
True anomaly
67.82066°
Mean anomaly
67.7972°
Eccentric anomaly
67.80893°
Mean motion
3.81738 °/min
Orbital period
94.31 mins
BSTAR
-0.00013944
Loading maneuver chart data...
Computing Atmospheric mass density...
Loading historical data...
Loading historical data...
Loading historical data...
Loading historical data...
Loading historical data...
Loading historical data...
Loading historical data...

Documentation

Showing up to 5 results
|